www.pogodaiklimat.ru

Погода и климат >> Архив погоды >> Норвегия >> Хорнсунн


ПОГОДА на Хорнсунне

  • Прогноз погоды на Хорнсунне
  • Монитор погоды на Хорнсунне

АРХИВ ПОГОДЫ на Хорнсунне

Время (UTC), дата Ветер
(напр.,м/с)
 
Видим.   Явления Облачность Т
(С)
Тd
(С)
f
(%)
Тe
(С)
Тes
(С)
Комфортность P
(гПа)
Po
(гПа)
Тmin
(С)
Tmax
(С)
R
(мм)
R24
(мм)
S
(см)
22 12.09 В 12
{16}
н/о н/о +4.6 +3.0 89 -3 -3 992.3 991.0
23 12.09 В 12
{16}
н/о н/о +4.6 +3.0 89 -3 -3 992.3 991.0
00 13.09 В 11
{18}
25 км {дождь} 9/3 600 м
[Sc As op]
+4.1 +2.5 89 -3 -3 992.4 991.1 0.8
01 13.09 В 12
{15}
н/о н/о +5.3 +3.2 86 -2 -2 992.4 991.1
02 13.09 В 9
{14}
н/о н/о +6.3 +3.6 83 +1 +1 992.5 991.2
03 13.09 В 9
{13}
25 км 9/3 300 м
[St As op]
+5.5 +3.5 87 -1 -1 992.5 991.2
04 13.09 В 11
{14}
н/о н/о +5.3 +3.5 88 -1 -1 992.6 991.3
05 13.09 В 11
{16}
н/о н/о +5.7 +3.6 86 -1 -1 992.5 991.2
06 13.09 В 11
{16}
25 км в посл. час дождь 9/6 300 м
[St As op]
+5.2 +3.4 88 -2 -2 992.3 991.0 +4.1 +8.0 0.8
07 13.09 В 11
{15}
н/о н/о +5.5 +3.0 84 -1 -1 992.4 991.1
08 13.09 В 10
{14}
н/о н/о +5.4 +3.3 86 -1 -1 992.7 991.4
09 13.09 В 9
{15}
15 км слаб. дождь 9/6 300 м
[St As op]
+5.0 +3.7 91 -1 -1 992.9 991.6
10 13.09 В 11 н/о н/о +5.4 +4.1 91 -1 -1 992.6 991.3
11 13.09 В 10 н/о н/о +5.9 +4.1 88 -0 -0 992.9 991.6
12 13.09 В 12
{18}
25 км осадки на расстоянии 9/9 600 м
[Sc]
+5.5 +3.7 88 -1 -1 992.9 991.6 2
13 13.09 В 13 н/о н/о +5.5 +3.8 89 -2 -2 992.5 991.2
14 13.09 В 11 н/о н/о +5.6 +3.9 89 -1 -1 993.1 991.8
15 13.09 В 10 12 км слаб. дождь 9/9 200 м
[St]
+5.9 +3.7 86 -0 -0 993.6 992.3
16 13.09 В 9 н/о н/о +4.6 +2.8 88 -2 -2 994.1 992.8
17 13.09 В 11 н/о н/о +4.3 +2.8 90 -3 -3 994.2 992.8
18 13.09 В 10
{17}
18 км осадки на расстоянии 9/9 300 м
[St]
+4.1 +2.8 91 -3 -3 994.5 993.1 +6.5 2
19 13.09 В 12 н/о н/о +3.8 +2.6 92 -4 -4 995.1 993.7
20 13.09 В 8 н/о н/о +4.2 +3.3 94 -2 -2 995.4 994.0
21 13.09 В 9 17 км {дождь} 10/10 300 м
[St]
+4.1 +2.9 92 -3 -3 995.6 994.2
22 13.09 В 9 н/о н/о +3.7 +3.0 95 -3 -3 995.6 994.2
23 13.09 В 9 н/о н/о +3.9 +2.7 92 -3 -3 995.8 994.4
00 14.09 В 9
{16}
19 км слаб. дождь 10/10 300 м
[St]
+3.8 +2.5 91 -3 -3 995.8 994.4 0.0
01 14.09 В 9
{13}
н/о н/о +3.7 +2.4 91 -3 -3 995.9 994.5
02 14.09 В 10
{13}
н/о н/о +4.2 +2.7 90 -3 -3 995.7 994.3
03 14.09 В 9 20 км {дождь} 10/10 300 м
[St]
+4.6 +3.1 90 -2 -2 995.6 994.2
04 14.09 В 10
{14}
н/о н/о +4.8 +3.0 88 -2 -2 995.8 994.4
05 14.09 В 6
{12}
н/о н/о +4.7 +2.6 86 -1 -1 995.9 994.5
06 14.09 СВ 7
{14}
20 км слаб. дождь 10/10 300 м
[Sc]
+5.6 +3.0 83 0 0 995.6 994.3 +3.5 +6.0 0.5
07 14.09 СВ 10 н/о н/о +5.8 +2.8 81 -0 -0 995.7 994.4
08 14.09 СВ 12
{16}
н/о н/о +5.8 +2.5 79 -1 -1 995.8 994.5
09 14.09 СВ 12
{16}
30 км слаб. дождь 10/9 300 м
[Sc As op]
+6.1 +2.0 75 -0 -0 995.2 993.9
10 14.09 СВ 11
{18}
н/о н/о +5.7 +2.2 78 -1 -1 996.3 995.0
11 14.09 СВ 11
{16}
н/о н/о +5.6 +2.3 79 -1 -1 996.1 994.8
12 14.09 СВ 13
{18}
20 км слаб. дождь 10/8 300 м
[Sc As op]
+5.5 +2.0 78 -1 -1 995.7 994.4 0.0
13 14.09 СВ 11
{18}
н/о н/о +5.8 +1.9 76 -0 -0 996.3 995.0
14 14.09 СВ 12
{18}
н/о н/о +5.7 +2.2 78 -1 -1 995.9 994.6
15 14.09 СВ 12
{18}
20 км слаб. дождь 9/8 300 м
[Sc As trans]
+5.8 +2.1 77 -1 -1 995.6 994.3
16 14.09 СВ 11
{16}
н/о н/о +5.4 +1.7 77 -1 -1 995.1 993.8
17 14.09 СВ 11
{17}
н/о н/о +5.5 +1.4 75 -1 -1 995.0 993.7
18 14.09 СВ 11
{18}
20 км слаб. дождь 10/8 300 м
[Sc As op]
+5.3 +1.4 76 -1 -1 994.7 993.4 +5.0 +6.4 0.2
19 14.09 СВ 11
{16}
н/о н/о +4.9 +1.4 78 -2 -2 994.1 992.8
20 14.09 СВ 11
{18}
н/о н/о +5.2 +1.3 76 -1 -1 994.1 992.8
21 14.09 В 9
{17}
10 км слаб. дождь 10/10 300 м
[Sc]
+4.9 +1.0 76 -1 -1 994.2 992.9
22 14.09 В 9
{15}
н/о н/о +4.2 +1.1 80 -2 -2 994.5 993.1
23 14.09 В 8
{16}
н/о н/о +3.9 +1.5 84 -2 -2 995.0 993.6
00 15.09 В 8
{18}
25 км {дождь} 9/9 300 м
[Sc]
+4.4 +1.6 82 -2 -2 995.5 994.1 0.7
01 15.09 В 7
{12}
н/о н/о +4.6 +1.8 82 -1 -1 996.1 994.7
02 15.09 В 5
{11}
н/о н/о +4.6 +2.0 83 -0 -0 996.8 995.4
03 15.09 В 9
{14}
20 км 9/8 300 м
[Sc Ac lent]
+4.1 +1.5 83 -2 -2 997.3 995.9
04 15.09 В 11
{15}
н/о н/о +3.5 +1.2 85 -4 -4 997.5 996.1
05 15.09 В 8
{12}
н/о н/о +3.7 +1.6 86 -3 -3 998.0 996.6
06 15.09 СВ 9
{15}
25 км {дождь} 9/9 100 м
[St]
+4.4 +1.9 84 -2 -2 998.0 996.6 +3.1 +5.5 0.7
07 15.09 СВ 7
{15}
н/о н/о +4.7 +1.9 82 -1 -1 998.7 997.3
08 15.09 В 8
{12}
н/о н/о +4.1 +2.1 87 -2 -2 1000.0 998.6
09 15.09 В 7
{11}
25 км в посл. час дождь 9/9 300 м
[Sc]
+4.6 +2.3 85 -1 -1 1001.3 999.9
10 15.09 В 7
{9}
н/о н/о +5.0 +2.9 86 -1 -1 1002.0 1000.6
11 15.09 В 8
{11}
н/о н/о +5.0 +2.9 86 -1 -1 1002.7 1001.3
12 15.09 В 7
{15}
25 км осадки на расстоянии 9/9 300 м
[Sc]
+5.3 +2.8 84 -0 -0 1003.6 1002.2 0.0
13 15.09 В 9
{13}
н/о н/о +5.2 +2.9 85 -1 -1 1004.5 1003.1
14 15.09 В 9
{13}
н/о н/о +4.9 +2.8 86 -1 -1 1005.2 1003.8
15 15.09 В 9
{13}
25 км 9/6 300 м
[Cu med, cong Ac trans Ci sp]
+5.2 +2.2 81 -1 -1 1005.7 1004.3
16 15.09 В 7
{12}
н/о н/о +5.2 +2.2 81 -0 -0 1006.6 1005.2
17 15.09 В 8
{13}
н/о н/о +5.8 +2.5 79 0 0 1007.0 1005.6
18 15.09 В 8
{13}
20 км осадки на расстоянии 9/8 100 м
[St Ac trans]
+5.5 +2.7 82 -0 -0 1007.8 1006.4 +4.1 +6.1 0.0
19 15.09 В 9
{13}
н/о н/о +5.7 +3.2 84 -0 -0 1008.4 1007.0
20 15.09 В 8
{13}
н/о н/о +5.3 +2.8 84 -0 -0 1009.2 1007.8
21 15.09 В 7
{14}
15 км в посл. час дождь 6/5 200 м
[St Ac trans]
+5.2 +2.4 82 -0 -0 1009.7 1008.3
22 15.09 В 9
{13}
н/о н/о +4.8 +1.8 81 -1 -1 1010.1 1008.7
23 15.09 В 8
{15}
н/о н/о +3.8 +1.5 85 -3 -3 1010.8 1009.4
00 16.09 В 8
{15}
15 км слаб. дождь 8/8 300 м
[Sc]
+3.8 +1.8 87 -3 -3 1011.2 1009.8 0.0
01 16.09 СВ 11
{17}
н/о н/о +4.7 +1.2 78 -2 -2 1010.9 1009.5
02 16.09 СВ 11
{16}
н/о н/о +4.5 +0.7 76 -2 -2 1011.1 1009.7
03 16.09 СВ 11
{15}
15 км 9/6 300 м
[Sc As op]
+4.4 +0.2 74 -2 -2 1012.0 1010.6
04 16.09 СВ 7
{16}
н/о н/о +4.2 -0.2 73 -1 -1 1012.8 1011.4
05 16.09 СВ 9
{16}
н/о н/о +3.4 -0.4 76 -3 -3 1012.9 1011.5
06 16.09 В 9
{20}
15 км слаб. дождь 9/9 600 м
[Sc]
+3.3 -1.2 72 -3 -3 1013.6 1012.2 +3.0 +5.8 0.0
07 16.09 В 11
{17}
н/о н/о +3.1 -1.8 70 -4 -4 1013.7 1012.3
08 16.09 В 8
{19}
н/о н/о +2.3 -1.5 76 -4 -4 1014.4 1013.0
09 16.09 СВ 10
{18}
12 км слаб. дождь со снегом 9/9 600 м
[Sc]
+2.8 -2.5 68 -4 -4 1015.0 1013.6
10 16.09 В 10
{17}
н/о н/о +2.1 -1.5 77 -5 -5 1015.3 1013.9
11 16.09 СВ 11
{17}
н/о н/о +2.2 -2.7 70 -5 -5 1016.2 1014.8
12 16.09 СВ 12
{19}
20 км в посл. час дождь со снегом 9/5 600 м
[Sc Cc]
+1.9 -3.2 69 -6 -6 1017.2 1015.8 0.0
13 16.09 СВ 11
{17}
н/о н/о +1.8 -3.8 66 -6 -6 1017.0 1015.6
14 16.09 СВ 13
{21}
н/о н/о +1.7 -4.1 65 -6 -6 1017.4 1016.0
15 16.09 СВ 13
{22}
15 км осадки на расстоянии 8/5 600 м
[Sc Ci fib]
+1.8 -4.5 63 -6 -6 1017.2 1015.8
16 16.09 СВ 11
{19}
н/о н/о +1.5 -4.5 64 -6 -6 1017.2 1015.8
17 16.09 СВ 11
{19}
н/о н/о +1.3 -4.3 66 -6 -6 1018.1 1016.7
18 16.09 СВ 12
{22}
25 км {снег} 8/5 600 м
[Sc Ci fib]
+1.2 -4.6 65 -7 -7 1018.2 1016.8 +1.1 +3.4 0.0
19 16.09 СВ 10
{19}
н/о н/о +1.3 -4.3 66 -6 -6 1018.1 1016.7
20 16.09 СВ 12
{19}
н/о н/о +1.2 -4.0 68 -7 -7 1018.0 1016.6
22 16.09 СВ 6
{17}
н/о н/о +1.3 -4.1 67 -5 -5 1018.9 1017.5
23 16.09 СВ 8
{15}
н/о н/о +1.0 -4.2 68 -6 -6 1019.3 1017.9
00 17.09 СВ 9 25 км 8/8 600 м
[Sc]
+0.8 -4.0 70 -7 -7 1019.7 1018.3
01 17.09 СВ 10
{17}
н/о н/о +1.0 -3.8 70 -7 -7 1019.6 1018.2
02 17.09 СВ 10
{19}
н/о н/о +1.2 -4.2 67 -6 -6 1019.6 1018.2
03 17.09 СВ 9
{13}
30 км 8/8 600 м
[Sc]
+1.2 -4.4 66 -6 -6 1019.8 1018.4
04 17.09 СВ 14
{20}
н/о н/о +1.4 -4.6 64 -7 -7 1018.6 1017.2
05 17.09 СВ 13
{19}
н/о н/о +0.9 -5.5 62 -7 -7 1019.7 1018.3
06 17.09 СВ 9
{20}
30 км 6/4 300 м
[Sc Ac lent]
+0.8 -5.2 64 -6 -6 1020.5 1019.1
07 17.09 СВ 6
{16}
н/о н/о +1.1 -5.5 61 -5 -5 1020.5 1019.1
08 17.09 СВ 6
{11}
н/о н/о +0.9 -5.5 62 -5 -5 1020.7 1019.3
09 17.09 В 7
{9}
50 км 6/4 600 м
[Sc Ac lent Ci fib]
+0.8 -4.6 67 -6 -6 1020.8 1019.4
10 17.09 СВ 6
{9}
н/о н/о +0.9 -5.1 64 -5 -5 1020.9 1019.5
11 17.09 СВ 7
{9}
н/о н/о +0.9 -5.3 63 -5 -5 1021.2 1019.8
12 17.09 В 6
{16}
40 км 9/4 600 м
[Sc Ac trans Cc]
+0.1 -3.6 76 -6 -6 1021.0 1019.6
13 17.09 В 7
{12}
н/о н/о -0.2 -3.2 80 -7 -7 1020.9 1019.5
14 17.09 В 7
{11}
н/о н/о +0.1 -3.8 75 -7 -7 1020.6 1019.2
15 17.09 В 4
{9}
50 км 6/5 600 м
[Sc Ci fib]
-0.1 -4.2 74 -5 -5 1020.5 1019.1
16 17.09 СВ 3
{8}
н/о н/о -0.2 -4.3 74 -5 -5 1020.3 1018.9
18 17.09 В 4 50 км 1/1 600 м
[Sc Ac lent]
-0.7 -4.8 74 -6 -6 1019.8 1018.4
19 17.09 В 4
{7}
н/о н/о -0.9 -4.5 77 -6 -6 1019.7 1018.3
20 17.09 В 4
{7}
н/о н/о -1.0 -4.4 78 -7 -7 1019.4 1018.0
21 17.09 В 4
{7}
50 км 1/1 600 м
[Sc Ac trans]
-1.2 -4.5 78 -7 -7 1019.5 1018.1
22 17.09 В 5
{6}
н/о н/о -1.3 -4.9 76 -8 -8 1019.3 1017.9
23 17.09 В 4
{7}
н/о н/о -1.4 -4.8 78 -7 -7 1019.0 1017.6
00 18.09 В 5
{7}
50 км 5/3 600 м
[Sc Ac trans Ci fib]
-1.5 -5.1 76 -8 -8 1018.8 1017.4
01 18.09 В 4
{8}
н/о н/о -1.7 -5.3 76 -7 -7 1018.6 1017.2
02 18.09 СВ 3
{6}
н/о н/о -1.8 -5.4 76 -7 -7 1018.3 1016.9
03 18.09 СВ 3
{4}
35 км 9/9 600 м
[Sc]
-1.5 -5.5 74 -6 -6 1018.0 1016.6
05 18.09 СВ 3
{4}
н/о н/о -1.5 -5.4 75 -6 -6 1017.3 1015.9
06 18.09 В 2 50 км 9/9 600 м
[Sc]
-1.5 -4.8 78 -5 -5 1016.9 1015.5
07 18.09 В 3
{4}
н/о н/о -1.3 -4.9 76 -6 -6 1016.9 1015.5
08 18.09 СВ 1
{4}
н/о н/о -1.0 -4.6 77 -3 -3 1016.5 1015.1
09 18.09 ЮВ 1
{2}
50 км 9/9 600 м
[Cu Sc]
-0.8 -4.5 76 -3 -3 1016.2 1014.8
10 18.09 ЮВ 1
{2}
н/о н/о -0.5 -4.2 76 -2 -2 1016.3 1014.9
11 18.09 ЮВ 1
{2}
н/о н/о +0.2 -5.4 66 -1 -1 1015.9 1014.5
12 18.09 ЮВ 2
{4}
50 км 5/1 600 м
[Sc Ac trans Ci fib]
+0.5 -5.3 65 -3 -2 1015.5 1014.1
13 18.09 ЮЗ 2
{3}
н/о н/о +0.6 -5.4 64 -3 -3 1015.3 1013.9
14 18.09 ЮЗ 3
{4}
н/о н/о +0.4 -4.4 70 -4 -4 1014.8 1013.4
15 18.09 З 4
{5}
50 км 9/1 1000 м
[Sc Ac As]
+0.6 -4.0 71 -4 -4 1014.3 1012.9
16 18.09 СВ 4
{5}
н/о н/о -0.1 -3.2 80 -5 -5 1013.9 1012.5
17 18.09 В 2
{4}
н/о н/о -0.2 -3.5 78 -4 -4 1013.3 1011.9
18 18.09 В 2
{5}
50 км 9/4 1500 м
[Sc Ac lent]
+0.2 -4.0 73 -3 -3 1012.7 1011.3 -1.5 +1.1
19 18.09 СВ 2
{3}
н/о н/о +0.1 -3.8 75 -3 -3 1012.2 1010.8
20 18.09 С 1
{2}
н/о н/о 0.0 -3.6 77 -2 -2 1011.8 1010.4
21 18.09 СВ 1
{2}
30 км 9/0
[Ac lent]
+0.3 -3.4 76 -1 -1 1011.3 1009.9
22 18.09 В 1
{2}
н/о н/о 0.0 -3.1 80 -2 -2 1010.9 1009.5
23 18.09 СВ 1
{2}
н/о н/о -0.2 -2.9 82 -2 -2 1010.7 1009.3
00 19.09 СВ 1
{3}
30 км 6/0 2000 м
[Ac lent Ci fib]
-0.3 -3.3 80 -2 -2 1010.4 1009.0
01 19.09 В 1
{2}
н/о н/о -0.3 -3.1 81 -2 -2 1010.1 1008.7
02 19.09 В 4
{5}
н/о н/о +0.7 -2.8 77 -4 -4 1009.9 1008.5
03 19.09 В 6
{8}
25 км 8/3 1500 м
[Sc As trans Ci fib]
+0.5 -1.7 85 -6 -6 1009.8 1008.4
04 19.09 В 6
{7}
н/о н/о 0.0 -0.9 94 -7 -7 1010.0 1008.6
05 19.09 В 5
{6}
н/о н/о -0.1 -0.7 96 -6 -6 1010.2 1008.8
06 19.09 В 4
{8}
12 км осадки на расстоянии 9/4 100 м
[St Ac trans]
-0.2 -0.8 96 -6 -6 1010.3 1008.9 -0.9 +1.0 0.0 <0.5
07 19.09 В 6
{7}
н/о н/о -0.3 -0.9 96 -7 -7 1010.4 1009.0
08 19.09 В 4
{7}
н/о н/о -0.2 -0.9 95 -6 -6 1010.9 1009.5
09 19.09 В 2
{5}
30 км в посл. час снег 9/3 600 м
[Sc As op]
0.0 -1.0 93 -4 -4 1011.3 1009.9
10 19.09 В 2
{4}
н/о н/о +0.2 -1.2 90 -3 -3 1011.7 1010.3
11 19.09 В 1
{3}
н/о н/о +0.1 -1.2 91 -2 -2 1011.8 1010.4
12 19.09 ЮВ 1
{7}
35 км {снег} 9/1 300 м
[St As op]
+0.1 -1.0 92 -2 -2 1012.0 1010.6 0.0
13 19.09 штиль 0
{1}
н/о н/о 0.0 -0.7 95 -1 -1 1012.1 1010.7
14 19.09 В 1
{1}
н/о н/о -0.2 -0.8 96 -2 -2 1012.0 1010.6
15 19.09 В 1
{1}
12 км слаб. дождь со снегом 10/10 50 м
[St]
-0.2 -0.7 96 -2 -2 1012.0 1010.6
16 19.09 СВ 1
{2}
н/о н/о -0.4 -0.9 96 -3 -3 1012.0 1010.6
17 19.09 В 2
{2}
н/о н/о -0.4 -0.8 97 -4 -4 1011.8 1010.4
18 19.09 В 2
{2}
15 км слаб. снег 6/5 100 м
[St As op]
-0.6 -1.1 96 -5 -5 1011.6 1010.2 -0.6 +0.2 0.7
19 19.09 В 3
{4}
н/о н/о -0.7 -1.1 97 -6 -6 1011.6 1010.2
20 19.09 СВ 2
{4}
н/о н/о -1.3 -1.8 96 -5 -5 1011.7 1010.3
21 19.09 В 2
{3}
18 км {снег} 8/6 100 м
[St Ac trans Ci fib]
-1.4 -2.0 96 -5 -5 1011.8 1010.4
22 19.09 СВ 2
{3}
н/о н/о -1.2 -1.8 96 -5 -5 1011.8 1010.4

 

Местоположение метеостанции Хорнсунн (Норвегия): широта 77.00 долгота 15.54 высота над уровнем моря 10 м.

В архиве по умолчанию представлена погода на Хорнсунне за последнюю неделю. Архивные данные за месяц целиком и за предыдущие месяцы, начиная с января 2011 года, Вы можете получить, выбрав интересующий диапазон дат из раскрывающегося списка и нажав кнопку "Ввод!".


*Определитесь, кто Вы:
робот инопланетянин человек

Внимание! Время в таблицах - всемирное. Для получения местного времени необходимо прибавить поправку, которая равна 1 ч.

Смотрите также архив погоды в соседних городах и на ближайших метеорологических станциях:

Погода на Сёркаппёйа (Норвегия) (63 км)
Погода на Акселойа (Норвегия) (78 км)
Погода в Баренцбурге (Шпицберген, Россия) (123 км)
Погода в Свальбард аэропорту (Норвегия) (139 км)
Погода в Пирамиде (Норвегия) (186 км)
Погода на Эдже (Норвегия) (222 км)
Погода в Ню-Олесунн (Норвегия) (229 км)
Погода в Хопене (Норвегия) (247 км)
Погода на Острове Медвежий (Норвегия) (292 км)
Погода на Верлегенхукен (Норвегия) (340 км)

Пояснения к столбцам:

Ветер - указаны скорость ветра в м/с - средняя за 10 мин, порывы в срок и между сроками (в фигурных скобках) и направление, откуда дует ветер: С - северный, СВ - северо-восточный, В - восточный, ЮВ - юго-восточный, Ю - южный, ЮЗ - юго-западный, З - западный, СЗ - северо-западный.
Видимость - горизонтальная дальность видимости в метрах или километрах. При видимости от 1 до 10 км при отсутствии осадков обычно наблюдается дымка, при ухудшении видимости до 1 км и менее - туман. В сухую погоду видимость может ухудшаться дымом, пылью или мглою.
Явления - указаны атмосферные явления, наблюдавшиеся в срок или в последний час перед сроком; фигурными скобками обозначены явления, наблюдавшиеся между сроками (за 1-3 часа до срока); квадратными скобками обозначены град или гололедные отложения с указанием их диаметра в мм.
Облачность - указаны через наклонную черту общая и нижняя облачность в баллах и высота нижней границы облаков в метрах; квадратными скобками обозначены формы облаков: Ci - перистые, Cs - перисто-слоистые, Cc - перисто-кучевые, Ac - высококучевые, As - высокослоистые, Sc - слоисто-кучевые, Ns - слоисто-дождевые, Cu - кучевые, Cb - кучево-дождевые. Подробнее классификацию облаков см. в Атласе облаков (PDF).
T - Температура воздуха - температура, измеренная на высоте 2 м над землей.
Td - Температура точки росы - температура, при понижении до которой содержащийся в воздухе водяной пар достигнет насыщения.
f - Относительная влажность воздуха - влажноcть воздуха, измеренная на высоте 2 м над землей.
Te - Эффективная температура - температура, которую ощущает одетый по сезону человек в тени. Характеристика душности погоды. При расчете учитывается влияние влажности воздуха и скорости ветра на теплоощущения человека.
Tes - Эффективная температура на солнце - температура, которую ощущает человек, с поправкой на солнечный нагрев. Характеристика знойности погоды. Зависит от высоты солнца над горизонтом, облачности и скорости ветра. Ночью, в пасмурную погоду, а также при ветре 12 м/с и более поправка равна нулю.
P - Атмосферное давление - приведенное к уровню моря атмосферное давление.
Po - Атмосферное давление - измеренное на уровне метеостанции атмосферное давление.
Tmin - Минимальная температура - минимум температуры воздуха на высоте 2 м над землей.
Tmax - Максимальная температура - максимум температуры воздуха на высоте 2 м над землей.
R - Количество осадков - Количество выпавших осадков за период времени, мм. При наведении курсора мыши на число - период времени, за который выпало указанное количество осадков.
R24 - Количество осадков - Количество выпавших осадков за 24 часа, мм.
S - Снежный покров - Высота снежного покрова, см. При наведении курсора мыши на число - состояние снежного покрова и степень покрытия местности в баллах.